| time (UTC) | temp F | wind direction | speed knots | gust knots | rain 1hr in | rain 24hr in | rain mn in | humidity % | barometer mb |
| 20260506002518 | 48 | 283 | 0.0 | 0.9 | 0.00 | 0.12 | 0.00 | 78 | 1007.5 |
| 20260506001518 | 48 | 264 | 0.0 | 1.7 | 0.00 | 0.12 | 0.00 | 77 | 1007.4 |
| 20260506000515 | 48 | 321 | 0.0 | 0.9 | 0.00 | 0.12 | 0.00 | 76 | 1007.4 |
| 20260505235516 | 48 | 294 | 0.0 | 1.7 | 0.00 | 0.12 | 0.00 | 77 | 1007.5 |
| 20260505234516 | 48 | 305 | 0.9 | 1.7 | 0.00 | 0.12 | 0.00 | 77 | 1007.5 |
| 20260505233516 | 48 | 250 | 0.0 | 0.9 | 0.00 | 0.12 | 0.00 | 78 | 1007.5 |
| 20260505232536 | 49 | 288 | 0.0 | 1.7 | 0.00 | 0.12 | 0.00 | 75 | 1007.4 |
| 20260505231516 | 49 | 304 | 0.9 | 3.5 | 0.00 | 0.12 | 0.00 | 75 | 1007.3 |
| 20260505230537 | 49 | 299 | 0.0 | 1.7 | 0.00 | 0.12 | 0.00 | 77 | 1007.3 |
| 20260505225516 | 49 | 174 | 0.0 | 1.7 | 0.00 | 0.12 | 0.12 | 78 | 1007.1 |
| 20260505224516 | 49 | 240 | 0.0 | 1.7 | 0.00 | 0.12 | 0.12 | 78 | 1007.1 |
| 20260505223517 | 49 | 307 | 0.9 | 3.5 | 0.00 | 0.12 | 0.12 | 77 | 1007.3 |
| 20260505222517 | 49 | 265 | 0.0 | 1.7 | 0.00 | 0.12 | 0.12 | 77 | 1007.5 |
| 20260505221517 | 49 | 322 | 0.9 | 2.6 | 0.00 | 0.12 | 0.12 | 77 | 1007.4 |
| 20260505220517 | 48 | 270 | 0.9 | 2.6 | 0.00 | 0.12 | 0.12 | 78 | 1007.5 |
| 20260505215517 | 48 | 234 | 0.0 | 2.6 | 0.00 | 0.12 | 0.12 | 79 | 1007.5 |
| 20260505214517 | 48 | 307 | 0.9 | 2.6 | 0.00 | 0.12 | 0.12 | 78 | 1007.5 |
| 20260505213517 | 49 | 302 | 0.9 | 2.6 | 0.00 | 0.12 | 0.12 | 78 | 1007.5 |
| 20260505212518 | 49 | 291 | 0.9 | 4.3 | 0.00 | 0.12 | 0.12 | 81 | 1007.5 |
| 20260505211538 | 49 | 289 | 0.9 | 4.3 | 0.00 | 0.12 | 0.12 | 80 | 1007.4 |
| 20260505210518 | 49 | 286 | 0.9 | 3.5 | 0.00 | 0.12 | 0.12 | 83 | 1007.4 |
| 20260505205518 | 49 | 281 | 0.9 | 3.5 | 0.00 | 0.12 | 0.12 | 85 | 1007.6 |
| 20260505204516 | 49 | 264 | 0.9 | 3.5 | 0.00 | 0.12 | 0.12 | 85 | 1007.3 |
| 20260505203516 | 49 | 285 | 1.7 | 5.2 | 0.01 | 0.12 | 0.12 | 85 | 1007.4 |
| 20260505202519 | 48 | 280 | 0.9 | 4.3 | 0.01 | 0.12 | 0.12 | 86 | 1007.3 |
| 20260505201536 | 48 | 283 | 1.7 | 3.5 | 0.01 | 0.12 | 0.12 | 86 | 1007.3 |
| 20260505200516 | 49 | 296 | 1.7 | 5.2 | 0.04 | 0.12 | 0.12 | 86 | 1007.4 |
| 20260505195516 | 49 | 302 | 0.9 | 3.5 | 0.08 | 0.12 | 0.12 | 87 | 1007.3 |
| 20260505194516 | 49 | 286 | 0.9 | 4.3 | 0.09 | 0.11 | 0.11 | 85 | 1007.2 |
| 20260505193517 | 49 | 272 | 0.9 | 4.3 | 0.08 | 0.11 | 0.11 | 84 | 1007.3 |
| 20260505192517 | 50 | 284 | 2.6 | 7.0 | 0.09 | 0.10 | 0.10 | 82 | 1007.0 |
| 20260505191516 | 51 | 289 | 0.9 | 2.6 | 0.10 | 0.10 | 0.10 | 82 | 1007.0 |
| 20260505190517 | 52 | 286 | 1.7 | 4.3 | 0.07 | 0.08 | 0.08 | 76 | 1006.9 |
| 20260505185517 | 53 | 265 | 0.9 | 4.3 | 0.03 | 0.04 | 0.04 | 71 | 1006.6 |
| 20260505184518 | 54 | 274 | 1.7 | 3.5 | 0.02 | 0.03 | 0.03 | 68 | 1006.6 |
| 20260505183518 | 55 | 312 | 1.7 | 5.2 | 0.02 | 0.02 | 0.02 | 67 | 1006.4 |
| 20260505182518 | 56 | 307 | 2.6 | 9.6 | 0.01 | 0.01 | 0.01 | 59 | 1006.1 |
| 20260505181518 | 57 | 309 | 2.6 | 7.0 | 0.00 | 0.01 | 0.01 | 56 | 1005.8 |
| 20260505180538 | 57 | 298 | 2.6 | 6.1 | 0.00 | 0.01 | 0.01 | 56 | 1005.6 |
| 20260505175518 | 57 | 281 | 2.6 | 7.8 | 0.00 | 0.01 | 0.01 | 56 | 1005.5 |
| 20260505174518 | 57 | 315 | 1.7 | 5.2 | 0.00 | 0.01 | 0.01 | 56 | 1005.2 |
| 20260505173518 | 57 | 330 | 1.7 | 6.1 | 0.00 | 0.01 | 0.01 | 56 | 1005.1 |
| 20260505172516 | 57 | 319 | 2.6 | 7.0 | 0.00 | 0.01 | 0.01 | 57 | 1005.2 |
| 20260505171519 | 58 | 298 | 1.7 | 5.2 | 0.00 | 0.01 | 0.01 | 57 | 1005.0 |
| 20260505170515 | 58 | 261 | 1.7 | 6.1 | 0.00 | 0.01 | 0.01 | 57 | 1004.9 |
| 20260505165516 | 58 | 297 | 2.6 | 6.1 | 0.00 | 0.01 | 0.01 | 58 | 1004.8 |
| 20260505164536 | 58 | 309 | 1.7 | 5.2 | 0.00 | 0.01 | 0.01 | 59 | 1004.8 |
| 20260505163517 | 58 | 324 | 1.7 | 4.3 | 0.00 | 0.01 | 0.01 | 60 | 1004.6 |
| 20260505162517 | 58 | 331 | 1.7 | 4.3 | 0.00 | 0.01 | 0.01 | 60 | 1004.6 |
| 20260505161517 | 59 | 300 | 1.7 | 8.7 | 0.00 | 0.01 | 0.01 | 61 | 1004.6 |
| 20260505160517 | 59 | 305 | 1.7 | 6.1 | 0.00 | 0.01 | 0.01 | 60 | 1004.6 |
| 20260505152518 | 58 | 276 | 1.7 | 6.1 | 0.00 | 0.01 | 0.01 | 64 | 1004.3 |
| 20260505151538 | 58 | 274 | 1.7 | 6.1 | 0.00 | 0.01 | 0.01 | 65 | 1003.4 |
| 20260505150518 | 58 | 359 | 1.7 | 5.2 | 0.00 | 0.01 | 0.01 | 67 | 1003.5 |
| 20260505140516 | 57 | 283 | 1.7 | 5.2 | 0.00 | 0.01 | 0.01 | 76 | 1002.3 |
| 20260505124537 | 58 | 283 | 1.7 | 4.3 | 0.00 | 0.01 | 0.01 | 84 | 1001.8 |
| 20260505123517 | 58 | 278 | 1.7 | 5.2 | 0.00 | 0.01 | 0.01 | 83 | 1001.3 |
| 20260505122537 | 58 | 287 | 1.7 | 7.8 | 0.00 | 0.01 | 0.01 | 83 | 1001.1 |
| 20260505121517 | 58 | 303 | 1.7 | 5.2 | 0.00 | 0.01 | 0.01 | 83 | 1001.0 |
| 20260505120518 | 57 | 280 | 2.6 | 7.0 | 0.00 | 0.01 | 0.01 | 83 | 1000.8 |
| 20260505115517 | 57 | 291 | 1.7 | 3.5 | 0.00 | 0.01 | 0.01 | 83 | 1000.4 |
| 20260505114518 | 57 | 303 | 1.7 | 4.3 | 0.00 | 0.01 | 0.01 | 83 | 1000.3 |
| 20260505113518 | 57 | 285 | 1.7 | 3.5 | 0.00 | 0.01 | 0.01 | 83 | 1000.3 |
| 20260505112518 | 57 | 302 | 1.7 | 3.5 | 0.00 | 0.01 | 0.01 | 84 | 1000.5 |
| 20260505111515 | 57 | 284 | 1.7 | 4.3 | 0.00 | 0.01 | 0.01 | 84 | 1000.4 |
| 20260505110516 | 57 | 295 | 1.7 | 4.3 | 0.00 | 0.01 | 0.01 | 84 | 1000.3 |
| 20260505101516 | 57 | 309 | 1.7 | 3.5 | 0.00 | 0.01 | 0.01 | 83 | 999.6 |
| 20260505100516 | 57 | 310 | 1.7 | 6.1 | 0.00 | 0.01 | 0.01 | 83 | 999.4 |
| 20260505095517 | 56 | 337 | 1.7 | 2.6 | 0.00 | 0.01 | 0.01 | 83 | 999.4 |
| 20260505094517 | 56 | 313 | 1.7 | 3.5 | 0.00 | 0.01 | 0.01 | 83 | 999.2 |
| 20260505093517 | 56 | 294 | 1.7 | 4.3 | 0.00 | 0.01 | 0.01 | 83 | 999.2 |
| 20260505092517 | 56 | 322 | 1.7 | 5.2 | 0.00 | 0.01 | 0.01 | 83 | 998.9 |
| 20260505091517 | 56 | 292 | 0.9 | 4.3 | 0.00 | 0.01 | 0.01 | 84 | 999.1 |
| 20260505090517 | 56 | 316 | 0.9 | 2.6 | 0.00 | 0.01 | 0.01 | 83 | 999.1 |
| 20260505085518 | 56 | 309 | 0.9 | 5.2 | 0.00 | 0.01 | 0.01 | 83 | 999.3 |
| 20260505084516 | 57 | 326 | 0.9 | 2.6 | 0.00 | 0.01 | 0.01 | 82 | 999.2 |
| 20260505083516 | 57 | 302 | 0.9 | 4.3 | 0.00 | 0.01 | 0.01 | 81 | 999.1 |
| 20260505082516 | 58 | 328 | 0.9 | 1.7 | 0.00 | 0.01 | 0.01 | 80 | 998.9 |
| 20260505081516 | 58 | 317 | 1.7 | 6.1 | 0.00 | 0.01 | 0.01 | 79 | 998.9 |
| 20260505080516 | 58 | 314 | 1.7 | 5.2 | 0.00 | 0.01 | 0.01 | 78 | 998.9 |
| 20260505075516 | 58 | 316 | 2.6 | 7.0 | 0.00 | 0.01 | 0.01 | 79 | 999.0 |
| 20260505074517 | 58 | 330 | 1.7 | 4.3 | 0.00 | 0.01 | 0.01 | 79 | 999.0 |
| 20260505073516 | 58 | 326 | 0.9 | 4.3 | 0.00 | 0.01 | 0.01 | 79 | 999.3 |
| 20260505072516 | 58 | 331 | 1.7 | 4.3 | 0.00 | 0.01 | 0.01 | 79 | 999.3 |
| 20260505071536 | 59 | 335 | 1.7 | 4.3 | 0.00 | 0.01 | 0.01 | 78 | 999.2 |
| 20260505070516 | 59 | 339 | 1.7 | 6.1 | 0.00 | 0.01 | 0.01 | 77 | 999.4 |
| 20260505065517 | 59 | 331 | 2.6 | 7.8 | 0.00 | 0.01 | 0.01 | 77 | 999.4 |
| 20260505064517 | 59 | 314 | 1.7 | 5.2 | 0.00 | 0.01 | 0.01 | 77 | 999.7 |
| 20260505063537 | 59 | 324 | 1.7 | 5.2 | 0.00 | 0.01 | 0.01 | 77 | 999.7 |
| 20260505062517 | 59 | 331 | 1.7 | 3.5 | 0.00 | 0.01 | 0.01 | 77 | 999.7 |
| 20260505061517 | 59 | 326 | 1.7 | 4.3 | 0.00 | 0.01 | 0.01 | 77 | 999.8 |
| 20260505060537 | 59 | 321 | 1.7 | 4.3 | 0.00 | 0.01 | 0.01 | 77 | 999.9 |
| 20260505055518 | 58 | 322 | 1.7 | 4.3 | 0.00 | 0.01 | 0.01 | 78 | 1000.1 |
| 20260505054518 | 58 | 339 | 1.7 | 5.2 | 0.00 | 0.01 | 0.01 | 78 | 1000.2 |
| 20260505053518 | 58 | 332 | 1.7 | 5.2 | 0.00 | 0.02 | 0.01 | 78 | 1000.3 |
| 20260505052517 | 58 | 320 | 1.7 | 5.2 | 0.00 | 0.03 | 0.01 | 77 | 1000.3 |
| 20260505051518 | 58 | 323 | 1.7 | 5.2 | 0.00 | 0.03 | 0.01 | 77 | 1000.4 |
| 20260505050518 | 58 | 305 | 1.7 | 4.3 | 0.00 | 0.03 | 0.01 | 77 | 1000.3 |
| 20260505041516 | 59 | 313 | 2.6 | 5.2 | 0.00 | 0.03 | 0.01 | 76 | 1000.3 |
| 20260505040519 | 60 | 339 | 2.6 | 6.1 | 0.01 | 0.03 | 0.01 | 75 | 1000.3 |
| 20260505035538 | 60 | 320 | 2.6 | 6.1 | 0.01 | 0.03 | 0.01 | 73 | 1000.3 |
| 20260505034516 | 60 | 309 | 1.7 | 7.0 | 0.01 | 0.03 | 0.01 | 73 | 1000.4 |
| 20260505033517 | 60 | 297 | 1.7 | 5.2 | 0.01 | 0.03 | 0.01 | 75 | 1000.5 |
| 20260505032537 | 60 | 336 | 1.7 | 5.2 | 0.01 | 0.03 | 0.01 | 75 | 1000.4 |
| 20260505031517 | 61 | 292 | 3.5 | 11.3 | 0.00 | 0.03 | 0.00 | 73 | 1000.4 |
| 20260505030517 | 62 | 307 | 2.6 | 6.1 | 0.00 | 0.02 | 0.00 | 71 | 1000.6 |
| 20260505025518 | 62 | 321 | 2.6 | 6.1 | 0.00 | 0.02 | 0.00 | 71 | 1000.7 |
| 20260505024537 | 62 | 329 | 1.7 | 5.2 | 0.00 | 0.02 | 0.00 | 71 | 1000.9 |
| 20260505023538 | 61 | 329 | 2.6 | 4.3 | 0.00 | 0.02 | 0.00 | 71 | 1000.8 |
| 20260505022518 | 61 | 351 | 1.7 | 5.2 | 0.00 | 0.02 | 0.00 | 71 | 1000.7 |
| 20260505021538 | 61 | 352 | 1.7 | 4.3 | 0.00 | 0.02 | 0.00 | 69 | 1000.8 |
| 20260505020518 | 62 | 2 | 1.7 | 3.5 | 0.00 | 0.02 | 0.00 | 68 | 1000.7 |
| 20260505015519 | 62 | 352 | 1.7 | 5.2 | 0.00 | 0.02 | 0.00 | 67 | 1000.7 |
| 20260505014516 | 62 | 342 | 1.7 | 6.1 | 0.00 | 0.02 | 0.00 | 65 | 1000.6 |
| 20260505013516 | 62 | 346 | 1.7 | 5.2 | 0.00 | 0.02 | 0.00 | 63 | 1000.5 |
| 20260505012536 | 62 | 9 | 1.7 | 6.1 | 0.00 | 0.02 | 0.00 | 61 | 1000.5 |
| 20260505011516 | 62 | 345 | 1.7 | 4.3 | 0.00 | 0.02 | 0.00 | 60 | 1000.4 |
| 20260505010516 | 62 | 358 | 1.7 | 4.3 | 0.00 | 0.02 | 0.00 | 60 | 1000.4 |
| 20260505005516 | 63 | 343 | 1.7 | 4.3 | 0.00 | 0.02 | 0.00 | 59 | 1000.4 |
| 20260505004517 | 63 | 354 | 1.7 | 4.3 | 0.00 | 0.02 | 0.00 | 58 | 1000.4 |
| 20260505003516 | 63 | 351 | 0.9 | 2.6 | 0.00 | 0.02 | 0.00 | 57 | 1000.3 |